Location: Unspecified
(33.6682°S, 0.0000°E)
Time: 16:19:40
(UTC+00:00)

Vanguard 2 Rocket - Pass Details

Date: 27 June 2019
Orbit: 554 x 3326 km, 32.9° (Epoch: 16 July)

Event Time Altitude Azimuth Distance (km) Brightness Sun altitude
Rises 06:06:00 0° 312° (NW) 7,274 11.2 -12.1°
Reaches altitude 10° 06:11:05 10° 316° (NW) 6,279 10.9 -11.1°
Maximum altitude 06:30:11 55° 26° (NNE) 3,241 10.0 -7.4°
Drops below altitude 10° 06:43:26 10° 98° (E) 4,532 11.5 -4.9°
Sets 06:46:25 0° 103° (ESE) 5,215 11.7 -4.3°
